Regional Weather Roundup
Issued by NWS

Home | Current Version | Previous Version | Text Only | Print | Product List | Glossary On
Versions: 1 2 3 4 5 6 7 8 9 10 11 12 13 14 15 16 17 18 19 20 21 22 23 24 25 26 27 28 29 30 31 32 33 34 35 36 37 38 39 40 41 42 43 44 45 46 47 48 49 50
000
ASUS46 KSEW 260810
RWRWA

WASHINGTON REGIONAL WEATHER ROUNDUP
NATIONAL WEATHER SERVICE SEATTLE WA
1200 AM PST SUN FEB 26 2017

NOTE:"FAIR" INDICATES FEW OR NO CLOUDS BELOW 12,000 FEET WITH NO
SIGNIFICANT WEATHER AND/OR OBSTRUCTIONS TO VISIBILITY.

WAZ507-509-555>559-260900-
SEATTLE, TACOMA, EVERETT, AND VICINITY

CITY           SKY/WX    TMP DP  RH WIND       PRES   REMARKS
EVERETT        LGT RAIN  37  35  92 SE10      29.85F
BOEING FIELD   LGT RAIN  40  37  89 S13       29.89F
RENTON         LGT RAIN  39  35  86 S13       29.90F
SEATAC AIRPORT NOT AVBL
JBLM-MCCHORD   LGT RAIN  37  36  93 S7        29.89F
PUYALLUP       DRIZZLE   37  36  93 VRB7      29.90F
BREMERTON      CLOUDY    36  34  93 S15G22    29.88F
JBLM-FT LEWIS  CLOUDY    39  36  87 S10       29.89F
TACOMA NARROWS LGT RAIN  39  33  79 S14       29.89F
$$

WAZ001-503-506-510-514-515-260900-
NORTH INTERIOR

CITY           SKY/WX    TMP DP  RH WIND       PRES   REMARKS
BELLINGHAM     LGT RAIN  36  35  96 SE7       29.86F
FRIDAY HARBOR  LGT RAIN  38  35  89 CALM      29.86F
EASTSOUND      LGT RAIN  37  36  93 S6        29.84F
PORT ANGELES   LGT RAIN  36  35  96 E6        29.84F
EDIZ HOOK      DRIZZLE   38  35  89 SE6       29.85F
PORT TOWNSEND  CLOUDY    37  37 100 CALM      29.86F FOG
NAS WHIDBEY    LGT RAIN  38  33  82 E5        29.90F
ARLINGTON      CLOUDY    37  28  70 SE12      29.89F
BURLINGTON     CLOUDY    36  34  93 NE3       29.88F FOG
$$

WAZ020-022-039-040-504-511-512-260900-
SOUTHWEST INTERIOR

CITY           SKY/WX    TMP DP  RH WIND       PRES   REMARKS
SHELTON        LGT RAIN  37  35  92 S9        29.86F
OLYMPIA        CLOUDY    38  33  82 S9        29.90F
CHEHALIS       CLOUDY    39  34  81 S8        29.92F
KELSO          CLOUDY    38  34  85 S3        29.97F
VANCOUVER      MOCLDY    38  35  89 CALM      29.98F
SCAPPOOSE, OR  CLOUDY    36  34  92 CALM      29.97F
PORTLAND, OR   MOCLDY    40  32  73 VRB5      29.99F
$$

WAZ021-516-517-260900-
WASHINGTON COAST

CITY           SKY/WX    TMP DP  RH WIND       PRES   REMARKS
FORKS          LGT RAIN  36  35  96 E5        29.82F
HOQUIAM        LGT RAIN  40  38  93 SW14G25   29.88F FOG
ASTORIA, OR    CLOUDY    40  35  83 VRB3      29.93F
$$

WAZ019-023-024-040-567>569-260900-
CASCADE MOUNTAINS AND COLUMBIA GORGE

CITY           SKY/WX    TMP DP  RH WIND       PRES   REMARKS
STAMPEDE PASS  NOT AVBL
TROUTDALE, OR  PTCLDY    39  34  82 NE3       29.99F
THE DALLES, OR CLOUDY    42  30  62 NW13      29.93F
$$

WAZ026-027-041>044-520-521-260900-
EAST SLOPES

CITY           SKY/WX    TMP DP  RH WIND       PRES   REMARKS
OMAK           CLOUDY    28  19  69 NW3       29.84F
WENATCHEE      CLOUDY    30  22  72 N3        29.82F
ELLENSBURG     CLOUDY    32  24  72 NW7       29.82F
YAKIMA         CLOUDY    37  25  61 N5        29.86F
SUNNYSIDE ARPT CLOUDY    32  28  84 E5        29.89F
$$

WAZ028-034-035-260900-
COLUMBIA BASIN

CITY           SKY/WX    TMP DP  RH WIND       PRES   REMARKS
EPHRATA        CLOUDY    31  24  75 S3        29.83S
MOSES LAKE     CLOUDY    37  25  61 S8        29.85S
PASCO          CLOUDY    39  28  64 SW10      29.91F
HERMISTON, OR  CLOUDY    40  28  62 SW12      29.91F
$$

WAZ036>038-260900-
NORTHEAST WASHINGTON

CITY           SKY/WX    TMP DP  RH WIND       PRES   REMARKS
SPOKANE GEIGER FLURRIES  30  24  78 S12       29.79F WCI  20
SPOKANE FELTS  LGT SNOW  31  28  89 SW9       29.82F FOG
FAIRCHILD AFB  CLOUDY    29  25  85 SW9       29.78F
COEURDALENE,ID NOT AVBL
DEER PARK      LGT SNOW  29  24  82 SE5       29.80F
$$

WAZ029>033-260900-
SOUTHEAST WASHINGTON

CITY           SKY/WX    TMP DP  RH WIND       PRES   REMARKS
PULLMAN        LGT SNOW  31  25  78 SW14G20   29.84S WCI  21
LEWISTON, ID   CLOUDY    34  26  72 CALM      29.88F
WALLA WALLA    CLOUDY    38  27  64 S12       29.90F
PENDLETON, OR  FLURRIES  37  26  64 SW7       29.89F
$$



USA.gov is the U.S. government's official web portal to all federal, state and local government web resources and services.